Agua de Enmedio, Mexico

12:38 AM MDT on May 23, 2017 (GMT -0600)
Agua de Enmedio

Weather History for 76405 - January, 2013

Change the Weather History Date:

Monday, January 7, 2013

  Actual Average Record
Temperature  
Mean Temperature 66 °F -  
Max Temperature 80 °F 75 °F - ()
Min Temperature 53 °F 52 °F - ()
Cooling Degree Days 2    
Growing Degree Days 16 (Base 50)    
Moisture  
Dew Point 43 °F    
Average Humidity 49    
Maximum Humidity 87    
Minimum Humidity 14    
Precipitation  
Precipitation 0.00 in - - ()
Sea Level Pressure  
Sea Level Pressure 29.93 in    
Wind  
Wind Speed 6 mph ()    
Max Wind Speed 14 mph    
Max Gust Speed -    
Visibility 10.0 miles    
Events      
T = Trace of Precipitation, MM = Missing Value Source: Averaged Metar Reports

Daily Weather History Graph

Daily Weather History Graph

Search for Another Location

Airport or City:

Trip Planner

Search our weather history database for the weather conditions in past years. The results will help you decide how hot, cold, wet, or windy it might be!

Date:

Astronomy

Jan. 07, 2013 Rise Set
Actual Time 7:05 AM MST 5:49 PM MST
Civil Twilight 6:41 AM MST 6:14 PM MST
Nautical Twilight 6:13 AM MST 6:42 PM MST
Astronomical Twilight 5:45 AM MST 7:10 PM MST
Moon 2:40 AM MST (1/7) 1:58 PM MST (1/7)
Length of Visible Light 11h 32m
Length of Day
10h 43m
Waning Crescent, 22% of the Moon is Illuminated
Jan 7
Waning Crescent
Jan 11
New
Jan 18
First Quarter
Jan 26
Full
Feb 3
Last Quarter

Hourly Weather History & Observations

Time (MST) Temp. Dew Point Humidity Pressure Visibility Wind Dir Wind Speed Gust Speed Precip Events Conditions
1:45 AM 59 °F 52 °F 71% 29.93 in 2 mi South 2.2 mph - -   Mostly Cloudy
4:40 AM 56 °F 53 °F 87% 29.95 in 2 mi South 4.5 mph - -   Mostly Cloudy
6:10 AM 51.8 °F 44.6 °F 76% 29.93 in 10.0 mi South 6.9 mph - N/A   Scattered Clouds
6:42 AM 53.6 °F 42.8 °F 67% 29.93 in 10.0 mi South 9.2 mph - N/A   Mostly Cloudy
7:40 AM 56 °F 44 °F 53% 29.98 in 16 mi South 4.5 mph - -   Mostly Cloudy
7:44 AM 53.6 °F 44.6 °F 72% 29.96 in 10.0 mi SSW 6.9 mph - N/A   Mostly Cloudy
8:41 AM 57.2 °F 46.4 °F 67% 29.97 in 10.0 mi South 8.1 mph - N/A   Mostly Cloudy
9:44 AM 62.6 °F 44.6 °F 52% 29.98 in 10.0 mi South 4.6 mph - N/A   Mostly Cloudy
10:50 AM 71 °F 42 °F 24% 29.95 in 19 mi South 6.7 mph - -   Clear
11:42 AM 71.6 °F 33.8 °F 25% 29.94 in 10.0 mi South 6.9 mph - N/A   Mostly Cloudy
12:44 PM 75.2 °F 30.2 °F 19% 29.89 in 10.0 mi South 13.8 mph - N/A   Mostly Cloudy
1:40 PM 77.0 °F 32.0 °F 19% 29.92 in 10.0 mi SSW 6.9 mph - N/A   Mostly Cloudy
1:50 PM 80 °F 40 °F 14% 29.87 in 19 mi WSW 6.7 mph - -   Clear
2:40 PM 77.0 °F 30.2 °F 18% 29.85 in 10.0 mi SW 9.2 mph - N/A   Scattered Clouds
3:40 PM 75.2 °F 30.2 °F 19% 29.88 in 10.0 mi WSW 13.8 mph - N/A   Scattered Clouds
4:44 PM 71.6 °F 44.6 °F 38% 29.94 in 10.0 mi WSW 13.8 mph - N/A   Scattered Clouds
4:45 PM 74 °F 48 °F 29% 29.85 in 19 mi SW 11.2 mph - -   Clear
5:45 PM 66.2 °F 50.0 °F 56% 29.88 in 10.0 mi SW 9.2 mph - N/A   Scattered Clouds
6:40 PM 64.4 °F 50.0 °F 59% 29.89 in 10.0 mi SW 8.1 mph - N/A   Scattered Clouds
7:40 PM 60.8 °F 48.2 °F 63% 29.97 in 10.0 mi WSW 6.9 mph - N/A   Scattered Clouds
7:45 PM 63 °F 48 °F 48% 29.88 in 2 mi WSW 6.7 mph - -  
8:43 PM 59.0 °F 44.6 °F 59% 29.95 in 10.0 mi SW 6.9 mph - N/A   Scattered Clouds
9:40 PM 57.2 °F 44.6 °F 63% 29.96 in 10.0 mi SSW 3.5 mph - N/A   Partly Cloudy
10:40 PM 53.6 °F 44.6 °F 72% 30.00 in 10.0 mi South 6.9 mph - N/A   Partly Cloudy
10:50 PM 58 °F 46 °F 55% 29.93 in 2 mi South 4.5 mph - -